TimeCDT,TemperatureF,Dew PointF,Humidity,Sea Level PressureIn,VisibilityMPH,Wind Direction,Wind SpeedMPH,Gust SpeedMPH,PrecipitationIn,Events,Conditions,WindDirDegrees,DateUTC
12:15 AM,79.5,74.8,86,30.05,10.0,SE,8.1,-,N/A,,Clear,130,2012-10-11 05:15:00
12:35 AM,79.2,74.5,86,30.04,10.0,SE,6.9,-,N/A,,Clear,130,2012-10-11 05:35:00
1:35 AM,79.2,75.6,89,30.04,10.0,SE,8.1,-,N/A,,Scattered Clouds,140,2012-10-11 06:35:00
1:55 AM,79.7,75.7,88,30.03,10.0,SE,9.2,-,N/A,,Scattered Clouds,130,2012-10-11 06:55:00
2:35 AM,79.9,76.1,88,30.03,10.0,SSE,6.9,-,N/A,,Scattered Clouds,150,2012-10-11 07:35:00
2:55 AM,80.2,76.1,87,30.03,10.0,SE,8.1,-,N/A,,Scattered Clouds,140,2012-10-11 07:55:00
3:15 AM,79.9,75.7,87,30.03,10.0,SE,8.1,-,N/A,,Scattered Clouds,140,2012-10-11 08:15:00
3:35 AM,79.9,75.9,88,30.03,10.0,SE,6.9,-,N/A,,Scattered Clouds,140,2012-10-11 08:35:00
3:55 AM,80.2,76.1,87,30.03,10.0,SE,6.9,-,N/A,,Mostly Cloudy,140,2012-10-11 08:55:00
4:15 AM,79.9,76.1,88,30.02,10.0,SE,6.9,-,N/A,,Scattered Clouds,130,2012-10-11 09:15:00
4:35 AM,79.9,76.1,88,30.02,10.0,SSE,6.9,-,N/A,,Scattered Clouds,150,2012-10-11 09:35:00
4:55 AM,79.9,75.9,88,30.02,10.0,SE,6.9,-,N/A,,Scattered Clouds,140,2012-10-11 09:55:00
5:15 AM,79.5,75.6,88,30.03,10.0,SE,5.8,-,N/A,,Scattered Clouds,140,2012-10-11 10:15:00
5:35 AM,79.0,75.4,89,30.03,10.0,SE,5.8,-,N/A,,Clear,130,2012-10-11 10:35:00
5:55 AM,78.6,75.4,90,30.03,10.0,SE,5.8,-,N/A,,Scattered Clouds,130,2012-10-11 10:55:00
6:15 AM,79.0,75.9,90,30.04,10.0,ESE,8.1,-,N/A,,Mostly Cloudy,120,2012-10-11 11:15:00
6:35 AM,79.3,76.1,90,30.04,10.0,SE,8.1,-,N/A,,Scattered Clouds,130,2012-10-11 11:35:00
7:35 AM,79.2,75.4,88,30.06,10.0,SE,6.9,-,N/A,,Mostly Cloudy,140,2012-10-11 12:35:00
7:55 AM,79.2,75.9,90,30.06,7.0,ESE,5.8,-,0.01,,Scattered Clouds,120,2012-10-11 12:55:00
8:15 AM,79.7,76.5,90,30.07,10.0,SE,8.1,-,N/A,,Clear,140,2012-10-11 13:15:00
8:35 AM,80.4,76.8,89,30.07,10.0,SE,8.1,-,N/A,,Clear,130,2012-10-11 13:35:00
8:55 AM,81.3,76.6,86,30.08,7.0,SSE,15.0,19.6,0.01,Rain,Rain,160,2012-10-11 13:55:00
9:15 AM,79.5,75.0,86,30.09,10.0,SE,8.1,-,N/A,,Mostly Cloudy,130,2012-10-11 14:15:00
9:35 AM,81.9,77.5,87,30.10,10.0,South,9.2,-,N/A,,Mostly Cloudy,180,2012-10-11 14:35:00
9:55 AM,81.0,74.7,81,30.10,10.0,SSE,5.8,-,N/A,,Overcast,150,2012-10-11 14:55:00
10:15 AM,82.0,75.9,82,30.11,10.0,SE,10.4,-,N/A,,Overcast,140,2012-10-11 15:15:00
10:35 AM,84.2,77.2,79,30.11,10.0,SE,17.3,-,N/A,,Overcast,140,2012-10-11 15:35:00
10:55 AM,86.2,76.5,73,30.11,10.0,SE,18.4,-,N/A,,Mostly Cloudy,130,2012-10-11 15:55:00
11:15 AM,85.6,75.4,71,30.11,10.0,SSE,13.8,25.3,N/A,,Mostly Cloudy,150,2012-10-11 16:15:00
11:35 AM,85.1,75.2,72,30.11,10.0,SE,20.7,-,N/A,,Mostly Cloudy,140,2012-10-11 16:35:00
11:55 AM,87.3,75.6,68,30.11,10.0,SSE,21.9,26.5,N/A,,Scattered Clouds,150,2012-10-11 16:55:00
12:15 PM,87.1,75.0,67,30.11,10.0,SSE,17.3,24.2,N/A,,Scattered Clouds,150,2012-10-11 17:15:00
12:35 PM,85.8,75.0,70,30.10,10.0,SE,16.1,-,N/A,,Scattered Clouds,140,2012-10-11 17:35:00
12:55 PM,88.0,75.4,66,30.09,10.0,SE,20.7,27.6,N/A,,Scattered Clouds,140,2012-10-11 17:55:00
1:15 PM,88.0,74.7,65,30.09,10.0,SSE,21.9,27.6,N/A,,Scattered Clouds,150,2012-10-11 18:15:00
1:35 PM,88.2,74.5,64,30.09,10.0,SSE,20.7,27.6,N/A,,Clear,150,2012-10-11 18:35:00
1:55 PM,88.5,74.1,62,30.07,10.0,SSE,21.9,27.6,N/A,,Clear,150,2012-10-11 18:55:00
2:15 PM,88.2,74.1,63,30.07,10.0,SE,19.6,26.5,N/A,,Clear,140,2012-10-11 19:15:00
2:35 PM,88.5,74.1,62,30.06,10.0,SSE,15.0,25.3,N/A,,Scattered Clouds,150,2012-10-11 19:35:00
2:55 PM,88.0,73.9,63,30.07,10.0,SSE,18.4,25.3,N/A,,Scattered Clouds,150,2012-10-11 19:55:00
3:15 PM,88.0,74.1,63,30.07,10.0,SE,19.6,26.5,N/A,,Scattered Clouds,140,2012-10-11 20:15:00
3:35 PM,87.8,73.4,62,30.06,10.0,SSE,20.7,26.5,N/A,,Scattered Clouds,150,2012-10-11 20:35:00
3:55 PM,86.7,73.4,64,30.06,10.0,SE,19.6,24.2,N/A,,Scattered Clouds,140,2012-10-11 20:55:00
4:35 PM,86.5,73.2,64,30.05,10.0,SE,17.3,25.3,N/A,,Scattered Clouds,130,2012-10-11 21:35:00
4:55 PM,86.7,72.7,63,30.05,10.0,SE,19.6,25.3,N/A,,Clear,130,2012-10-11 21:55:00
5:35 PM,85.8,72.9,65,30.04,10.0,SE,18.4,24.2,N/A,,Clear,130,2012-10-11 22:35:00
6:15 PM,84.2,72.5,68,30.04,10.0,SE,17.3,23.0,N/A,,Clear,130,2012-10-11 23:15:00
6:35 PM,83.3,72.7,70,30.04,10.0,ESE,16.1,19.6,N/A,,Clear,120,2012-10-11 23:35:00
6:55 PM,82.2,73.0,74,30.04,10.0,SE,15.0,21.9,N/A,,Clear,130,2012-10-11 23:55:00
7:15 PM,81.3,72.9,75,30.05,10.0,ESE,10.4,17.3,N/A,,Clear,120,2012-10-12 00:15:00
7:35 PM,80.8,73.0,77,30.05,10.0,North,-9999.0,-,N/A,,Clear,0,2012-10-12 00:35:00
8:15 PM,80.2,73.4,80,30.06,10.0,SE,9.2,-,N/A,,Clear,130,2012-10-12 01:15:00
8:55 PM,79.9,73.6,81,30.07,10.0,ESE,11.5,-,N/A,,Clear,120,2012-10-12 01:55:00
9:15 PM,79.7,73.0,80,30.08,10.0,ESE,10.4,-,N/A,,Clear,120,2012-10-12 02:15:00
9:55 PM,79.9,73.4,80,30.09,10.0,ESE,10.4,-,N/A,,Clear,120,2012-10-12 02:55:00
10:15 PM,79.7,72.9,80,30.09,10.0,ESE,11.5,-,N/A,,Clear,120,2012-10-12 03:15:00
10:35 PM,79.7,72.5,79,30.09,10.0,ESE,11.5,-,N/A,,Clear,120,2012-10-12 03:35:00
11:15 PM,79.2,73.0,81,30.09,10.0,SE,11.5,-,N/A,,Clear,130,2012-10-12 04:15:00
11:35 PM,79.3,72.7,80,30.09,10.0,ESE,9.2,-,N/A,,Clear,120,2012-10-12 04:35:00
11:55 PM,79.0,72.9,81,30.09,10.0,SE,10.4,-,N/A,,Clear,130,2012-10-12 04:55:00